Vancouver, WA
on Sunday, January 13, 2013

Sunday
Previous Day Next Day
Daily Summary
 ActualAverageRecord
Temperature
Mean Temperature °F 41°F  
Max Temperature 33°F 47°F 58°F (2011)
Min Temperature 27°F 36°F 7°F (1930)
Degree Days
Heating Degree Days 35    
Month to date heating degree days 373  
Since 1 July heating degree days 1921  
Cooling Degree Days 0    
Month to date cooling degree days 0  
Year to date cooling degree days 0  
Moisture
Dew Point 25°F   
Average Humidity 82    
Maximum Humidity 92    
Minimum Humidity 72    
Precipitation
Precipitation T in 0.18 in 1.63 in (1975)
Month to date precipitation 0.93 2.56  
Year to date precipitation 0.93 2.56  
Snow
Snow 0.00 in in in ()
Month to date snowfall 0.0  
Snow Depth 0.00 in   
Wind
Wind Speed 1 mph   
Max Wind Speed 8 mph   
Max Gust Speed 12 mph   
Visibility 7 miles   
Events Snow   

Key: T is trace of precipitation, MM is missing value
Source: NWS Daily Summary
Time(PST)TemperatureDew PointHumidity Pressure Visibility Wind DirectionWind SpeedGust SpeedPrecipitationEvents Conditions
12:53 AM 30.0°F 28.0°F 92% 30.42 in 6.0 miles Calm Calm - N/A   Overcast
1:53 AM 30.0°F 27.0°F 88% 30.44 in 7.0 miles Calm Calm - N/A   Overcast
2:53 AM 28.9°F 26.1°F 89% 30.44 in 9.0 miles NW 3.5 mph - N/A   Overcast
3:20 AM 28.4°F 26.6°F 93% 30.45 in 8.0 miles NW 6.9 mph - N/A   Overcast
3:28 AM 28.4°F 26.6°F 93% 30.44 in 6.0 miles NW 5.8 mph - N/A   Overcast
3:35 AM 28.4°F 26.6°F 93% 30.44 in 7.0 miles NW 4.6 mph - N/A   Overcast
4:44 AM 26.6°F 24.8°F 93% 30.44 in 4.0 miles West 4.6 mph - N/A   Overcast
4:53 AM 27.0°F 25.0°F 92% 30.44 in 1.5 miles West 3.5 mph - N/A   Overcast
5:01 AM 26.6°F 24.8°F 93% 30.44 in 1.2 miles West 4.6 mph - 0.00 in Snow Light Snow
5:03 AM 26.6°F 24.8°F 93% 30.44 in 1.5 miles West 3.5 mph - 0.00 in Snow Light Snow
5:23 AM 26.6°F 24.8°F 93% 30.44 in 3.0 miles West 3.5 mph - 0.00 in   Overcast
5:34 AM 26.6°F 24.8°F 93% 30.44 in 5.0 miles West 3.5 mph - 0.00 in   Overcast
5:53 AM 27.0°F 25.0°F 92% 30.44 in 6.0 miles Calm Calm - 0.00 in   Overcast
6:08 AM 26.6°F 24.8°F 93% 30.45 in 6.0 miles Calm Calm - N/A   Overcast
6:53 AM 28.0°F 25.0°F 88% 30.47 in 8.0 miles Calm Calm - N/A   Overcast
7:53 AM 28.0°F 25.0°F 88% 30.48 in 6.0 miles Calm Calm - N/A   Overcast
8:53 AM 28.0°F 26.1°F 92% 30.50 in 4.0 miles Calm Calm - N/A   Overcast
9:53 AM 28.9°F 26.1°F 89% 30.50 in 6.0 miles Calm Calm - N/A   Overcast
10:25 AM 28.4°F 26.6°F 93% 30.50 in 7.0 miles Calm Calm - N/A   Overcast
10:43 AM 30.2°F 24.8°F 80% 30.50 in 8.0 miles Calm Calm - N/A   Overcast
10:53 AM 30.0°F 25.0°F 82% 30.50 in 10.0 miles Calm Calm - N/A   Overcast
11:35 AM 30.2°F 24.8°F 80% 30.49 in 10.0 miles Calm Calm - N/A   Overcast
11:53 AM 30.0°F 24.1°F 79% 30.48 in 10.0 miles Calm Calm - N/A   Mostly Cloudy
12:26 PM 32.0°F 26.6°F 80% 30.47 in 10.0 miles Variable 4.6 mph - N/A   Overcast
12:53 PM 32.0°F 25.0°F 75% 30.47 in 10.0 miles NW 4.6 mph - N/A   Overcast
1:50 PM 32.0°F 24.8°F 75% 30.47 in 10.0 miles WNW 6.9 mph - N/A   Overcast
1:53 PM 32.0°F 25.0°F 75% 30.47 in 10.0 miles NW 6.9 mph - N/A   Overcast
2:53 PM 32.0°F 25.0°F 75% 30.47 in 10.0 miles NW 4.6 mph - N/A   Overcast
3:53 PM 30.9°F 25.0°F 79% 30.48 in 10.0 miles WNW 3.5 mph - N/A   Mostly Cloudy
4:09 PM 30.2°F 24.8°F 80% 30.47 in 10.0 miles WNW 4.6 mph - N/A   Scattered Clouds
4:53 PM 30.0°F 24.1°F 79% 30.47 in 10.0 miles Calm Calm - N/A   Clear
5:53 PM 28.9°F 24.1°F 82% 30.49 in 10.0 miles Calm Calm - N/A   Clear
6:53 PM 27.0°F 24.1°F 89% 30.50 in 10.0 miles Calm Calm - N/A   Clear
7:53 PM 28.0°F 24.1°F 85% 30.49 in 7.0 miles Calm Calm - N/A   Overcast
8:53 PM 30.0°F 25.0°F 82% 30.51 in 9.0 miles Calm Calm - N/A   Overcast
9:53 PM 28.9°F 25.0°F 85% 30.50 in 8.0 miles Calm Calm - N/A   Overcast
11:53 PM 28.9°F 25.0°F 85% 30.51 in 6.0 miles Calm Calm - N/A   Overcast
Moon Phase
Jan. 13 Jan. 18 Jan. 26 Feb. 03 Feb. 10
Sunrise:07:48 AM (PST) Moon Rise:08:41 AM (PST)1/13
Sunset:04:51 PM (PST) Moon Set:07:46 PM (PST)1/13

Copyright © 2014 The Weather Underground, Inc.